EW7772 Weather Reports


time (UTC)temp
C
wind
direction
speed
KPH
gust
KPH
rain 1hr
cm
rain 24hr
cm
rain mn
cm
humidity
%
barometer
mb
20260905163048 22 275 0.0 3.2 0.00 1.24 1.24 48 1022.0
20260905161537 23 236 0.0 6.4 0.00 1.24 1.24 45 1022.0
20260905160036 23 284 1.6 6.4 0.00 1.24 1.24 46 1021.9
20260905154544 23 244 0.0 9.7 0.00 1.24 1.24 47 1021.8
20260905153035 24 259 0.0 6.4 0.00 1.24 1.24 45 1021.7
20260905151535 25 273 0.0 9.7 0.00 1.24 1.24 43 1021.6
20260905150041 25 258 1.6 9.7 0.00 1.24 1.24 44 1021.5
20260905144537 25 144 1.6 11.3 0.00 1.24 1.24 45 1021.4
20260905143033 25 284 1.6 9.7 0.00 1.24 1.24 45 1021.5
20260905141534 25 286 0.0 8.0 0.00 1.24 1.24 47 1021.5
20260905140029 25 263 0.0 9.7 0.00 1.24 1.24 49 1021.5
20260905134527 25 234 1.6 6.4 0.00 1.24 1.24 49 1021.6
20260905133024 24 273 0.0 8.0 0.00 1.24 1.24 53 1021.5
20260905131533 23 14 0.0 8.0 0.00 1.24 1.24 54 1021.6
20260905130021 23 284 0.0 6.4 0.00 1.24 1.24 54 1021.7
20260905124521 23 241 0.0 4.8 0.00 1.24 1.24 58 1021.8
20260905123029 23 290 0.0 3.2 0.00 1.24 1.24 58 1021.6
20260905121517 23 259 0.0 6.4 0.00 1.24 1.24 58 1021.7
20260905120022 23 211 1.6 8.0 0.00 1.24 1.24 57 1021.9
20260905114517 22 320 0.0 6.4 0.00 1.24 1.24 62 1021.8
20260905113011 21 287 0.0 6.4 0.00 1.24 1.24 63 1021.9
20260905111513 22 303 0.0 8.0 0.00 1.24 1.24 64 1021.8
20260905110008 22 267 1.6 8.0 0.00 1.24 1.24 65 1021.8
20260905104515 21 263 1.6 9.7 0.00 1.24 1.24 68 1021.9
20260905103003 20 287 1.6 9.7 0.00 1.24 1.24 69 1022.0
20260905101501 20 254 0.0 4.8 0.00 1.24 1.24 72 1021.9
20260905100104 20 286 0.0 4.8 0.00 1.24 1.24 74 1021.9
20260905094716 20 319 0.0 4.8 0.00 1.24 1.24 78 1021.9
20260905093116 18 287 0.0 6.4 0.00 1.24 1.24 81 1021.8
20260905091602 18 277 0.0 6.4 0.00 1.24 1.24 80 1021.8
20260905090055 18 271 0.0 3.2 0.00 1.24 1.24 81 1021.6
20260905084604 18 284 0.0 4.8 0.00 1.24 1.24 81 1021.3
20260905083053 17 249 0.0 4.8 0.00 1.24 1.24 85 1021.3
20260905081553 17 234 0.0 1.6 0.00 1.24 1.24 90 1021.1
20260905080105 16 234 0.0 1.6 0.00 1.24 1.24 92 1021.0
20260905074601 16 221 0.0 1.6 0.00 1.24 1.24 94 1021.2
20260905073105 15 221 0.0 0.0 0.00 1.24 1.24 94 1020.9
20260905071552 15 221 0.0 0.0 0.00 1.24 1.24 94 1020.8
20260905070048 15 221 0.0 0.0 0.00 1.24 1.24 95 1020.7
20260905064548 15 221 0.0 0.0 0.00 1.24 1.24 95 1020.9
20260905063047 14 221 0.0 0.0 0.00 1.24 1.24 94 1020.7
20260905061559 14 221 0.0 0.0 0.00 1.24 1.24 95 1020.3
20260905060059 14 221 0.0 1.6 0.00 1.24 1.24 95 1020.0
20260905054554 14 221 0.0 1.6 0.00 1.24 1.24 95 1019.8
20260905053042 14 221 0.0 0.0 0.00 1.24 1.24 95 1019.7
20260905051552 13 221 0.0 0.0 0.03 1.24 1.24 94 1019.6
20260905050040 13 221 0.0 3.2 0.08 1.24 1.24 94 1019.3
20260905044543 13 221 0.0 1.6 0.20 1.24 1.24 93 1019.3
20260905043040 13 221 0.0 3.2 0.33 1.24 1.24 92 1019.2
20260905041540 13 227 0.0 1.6 0.41 1.22 1.22 92 1019.3
20260905040035 13 227 0.0 0.0 0.51 1.17 1.17 90 1019.6
20260905034535 14 227 0.0 0.0 0.69 1.04 1.04 90 1019.5
20260905033030 14 227 0.0 0.0 0.79 0.89 0.89 89 1019.6
20260905031537 15 227 0.0 3.2 0.81 0.81 0.81 88 1019.5
20260905030025 16 157 0.0 3.2 0.61 0.61 0.61 89 1019.7
20260905024539 17 217 0.0 8.0 0.36 0.36 0.36 86 1019.1
20260905023021 18 246 0.0 4.8 0.08 0.08 0.08 82 1018.9
20260905021514 20 309 0.0 4.8 0.00 0.00 0.00 75 1017.7
20260905020011 20 275 0.0 3.2 0.00 0.00 0.00 74 1017.4
20260905014511 20 276 0.0 0.0 0.00 0.00 0.00 71 1017.3
20260905013009 20 276 0.0 4.8 0.00 0.00 0.00 72 1017.3
20260905011509 20 311 0.0 1.6 0.00 0.00 0.00 73 1017.2
20260905010005 20 312 0.0 1.6 0.00 0.00 0.00 74 1016.9
20260905004507 20 311 0.0 1.6 0.00 0.00 0.00 75 1016.8
20260905003100 20 323 0.0 0.0 0.00 0.00 0.00 75 1016.4
20260905001559 19 323 0.0 0.0 0.00 0.00 0.00 75 1016.1
20260905000058 19 323 0.0 0.0 0.00 0.00 0.00 76 1016.0
20260904234557 20 323 0.0 0.0 0.00 0.00 0.00 76 1016.1
20260904233056 20 323 0.0 0.0 0.00 0.00 0.00 76 1016.0
20260904231555 20 323 0.0 0.0 0.00 0.00 0.00 76 1015.8
20260904230106 20 323 0.0 0.0 0.00 0.00 0.00 75 1015.7
20260904224556 20 323 0.0 0.0 0.00 0.00 0.00 76 1015.4
20260904223106 19 323 0.0 0.0 0.00 0.00 0.00 76 1015.3
20260904221558 19 323 0.0 0.0 0.00 0.00 0.00 75 1015.2
20260904220047 20 323 0.0 0.0 0.00 0.00 0.00 73 1015.0
20260904214550 20 323 0.0 0.0 0.00 0.00 0.00 72 1014.9
20260904213045 21 323 0.0 0.0 0.00 0.00 0.00 70 1014.6
20260904211544 21 323 0.0 0.0 0.00 0.00 0.00 69 1014.5
20260904210043 21 323 0.0 0.0 0.00 0.00 0.00 68 1014.5
20260904204543 22 323 0.0 0.0 0.00 0.00 0.00 66 1014.4
20260904203042 22 323 0.0 0.0 0.00 0.00 0.00 65 1014.3
20260904201544 22 323 0.0 0.0 0.00 0.00 0.00 63 1014.3
20260904200058 23 323 0.0 0.0 0.00 0.00 0.00 61 1014.1
20260904194544 23 323 0.0 0.0 0.00 0.00 0.00 60 1014.1
20260904193054 24 323 0.0 0.0 0.00 0.00 0.00 57 1014.1
20260904191544 25 323 0.0 0.0 0.00 0.00 0.00 57 1013.9
20260904190037 25 323 0.0 0.0 0.00 0.00 0.00 55 1013.9
20260904184538 25 323 0.0 1.6 0.00 0.00 0.00 54 1013.7
20260904183036 26 323 0.0 0.0 0.00 0.00 0.00 52 1013.6
20260904181536 27 323 0.0 0.0 0.00 0.00 0.00 49 1013.4
20260904180037 27 323 0.0 3.2 0.00 0.00 0.00 48 1013.2
20260904174535 28 331 0.0 3.2 0.00 0.00 0.00 46 1013.0
20260904173034 28 283 0.0 1.6 0.00 0.00 0.00 45 1013.0
20260904171604 28 298 0.0 4.8 0.00 0.00 0.00 44 1013.0
20260904170033 29 253 0.0 4.8 0.00 0.00 0.00 42 1013.0
20260904164534 29 251 0.0 9.7 0.00 0.00 0.00 40 1012.9